Location: Hokitika
(42.7170°S, 170.9670°E)
Time: 10:09:22
(UTC+13:00)

Meteor 1-25 Rocket - Pass Details

Date: 24 January 2019
Orbit: 836 x 892 km, 81.2° (Epoch: 16 February)

Event Time Altitude Azimuth Distance (km) Brightness Sun altitude
Rises 23:15:05 0° 189° (S) 3,518 8.5 -18.7°
Reaches altitude 10° 23:17:34 10° 186° (S) 2,579 7.6 -19.0°
Maximum altitude 23:23:27 73° 101° (E) 943 4.3 -19.7°
Enters shadow 23:25:56 36° 25° (NNE) 1,385 4.8 -19.9°
